Find Starlink 32258

NORAD ID: 60939 Int'l Des: 2024-155 Owner: SPXS Country: US Constellation: starlink operational
LEOCIRCULAR

リアルタイム位置

3D地球を読み込み中...

Starlink 32258について

説明を読み込み中...

次回通過

Passes for default location (London). Set your location on the main map for personalized predictions.

高度履歴

Loading altitude history...

軌道要素

1 60939U 24155R 26127.55799564 .00001646 00000-0 67712-4 0 9996
2 60939 53.1596 216.2453 0001351 104.8179 255.2971 15.30196387 95302
Epoch: May 7, 2026 • Age: 21 hours

現在のステータス

高度 477.7 km
速度 7.63 km/s
衛星直下点 38.76°N, 25.75°W
打ち上げ日 Aug 31, 2024
運用期間 1.6 years
タイプ internet

技術仕様

分類 Payload
質量 730.00 kg
乾燥質量 700.00 kg
総質量 730.00 kg
長さ 0.30 m
直径 4.10 m
スパン 29.00 m
形状 Box + pan
製造者 SPXS
バスタイプ Starlink V2M
フェーズステータス In Orbit
所有者/国 SPXS/US

Most Searched